Location: �quirre
(50.4736°N, 2.2351°E)
Time: 03:50:57
(UTC+00:00)

Cosmos 1898 Rocket - Pass Details

Date: 07 August 2020
Orbit: 754 x 783 km, 74.0° (Epoch: 23 September)

Event Time Altitude Azimuth Distance (km) Brightness Sun altitude
Exits shadow 02:11:47 17° 167° (SSE) 1,886 5.1 -16.9°
Maximum altitude 02:15:28 41° 105° (ESE) 1,102 4.5 -16.6°
Drops below altitude 10° 02:20:20 10° 36° (NE) 2,304 7.4 -16.2°
Sets 02:22:49 0° 29° (NNE) 3,230 8.5 -15.9°
